Time,TemperatureF,DewpointF,PressureIn,WindDirection,WindDirectionDegrees,WindSpeedMPH,WindSpeedGustMPH,Humidity,HourlyPrecipIn,Conditions,Clouds,dailyrainin,SoftwareType,DateUTC
2013-10-03 00:03:00,57.2,56.0,29.95,NNW,330,0.0,-999.0,96,-99.99,,,0.01,weatherlink.com 1.10,2013-10-03 04:03:00,
2013-10-03 00:18:00,57.1,56.0,29.95,NNW,330,0.0,-999.0,96,-99.99,,,0.01,weatherlink.com 1.10,2013-10-03 04:18:00,
2013-10-03 00:33:00,57.0,56.0,29.95,NNW,330,0.0,-999.0,96,-99.99,,,0.01,weatherlink.com 1.10,2013-10-03 04:33:00,
2013-10-03 00:48:00,57.0,56.0,29.95,NNW,331,0.0,-999.0,96,-99.99,,,0.01,weatherlink.com 1.10,2013-10-03 04:48:00,
2013-10-03 01:03:00,57.4,56.0,29.94,NNW,331,0.0,-999.0,96,-99.99,,,0.00,weatherlink.com 1.10,2013-10-03 05:03:00,
2013-10-03 01:18:00,57.5,56.0,29.93,NNW,331,0.0,-999.0,96,-99.99,,,0.00,weatherlink.com 1.10,2013-10-03 05:18:00,
2013-10-03 01:33:00,57.5,56.0,29.93,NNW,331,0.0,-999.0,96,-99.99,,,0.00,weatherlink.com 1.10,2013-10-03 05:33:00,
2013-10-03 01:48:00,57.5,56.0,29.93,NNW,331,0.0,-999.0,96,-99.99,,,0.00,weatherlink.com 1.10,2013-10-03 05:48:00,
2013-10-03 02:03:00,57.9,57.0,29.93,ENE,62,0.0,-999.0,97,-99.99,,,0.00,weatherlink.com 1.10,2013-10-03 06:03:00,
2013-10-03 02:18:00,57.0,56.0,29.93,NNE,28,0.0,-999.0,96,-99.99,,,0.00,weatherlink.com 1.10,2013-10-03 06:18:00,
2013-10-03 02:33:00,57.0,56.0,29.93,NNE,28,0.0,-999.0,97,-99.99,,,0.00,weatherlink.com 1.10,2013-10-03 06:33:00,
2013-10-03 02:48:00,57.0,56.0,29.92,NNE,28,0.0,-999.0,97,-99.99,,,0.00,weatherlink.com 1.10,2013-10-03 06:48:00,
2013-10-03 03:03:00,57.1,56.0,29.91,NNE,28,0.0,-999.0,96,-99.99,,,0.00,weatherlink.com 1.10,2013-10-03 07:03:00,
2013-10-03 03:18:00,57.0,56.0,29.91,NNE,26,0.0,-999.0,96,-99.99,,,0.00,weatherlink.com 1.10,2013-10-03 07:18:00,
2013-10-03 03:33:00,57.0,56.0,29.91,NNE,26,0.0,-999.0,96,-99.99,,,0.00,weatherlink.com 1.10,2013-10-03 07:33:00,
2013-10-03 03:48:00,57.0,56.0,29.91,NNE,26,0.0,-999.0,97,-99.99,,,0.00,weatherlink.com 1.10,2013-10-03 07:48:00,
2013-10-03 04:03:00,57.1,56.0,29.90,NNE,26,0.0,-999.0,97,-99.99,,,0.00,weatherlink.com 1.10,2013-10-03 08:03:00,
2013-10-03 04:18:00,56.4,55.0,29.91,NNE,24,0.0,-999.0,96,-99.99,,,0.00,weatherlink.com 1.10,2013-10-03 08:18:00,
2013-10-03 04:33:00,56.4,55.0,29.90,NNE,24,0.0,-999.0,96,-99.99,,,0.00,weatherlink.com 1.10,2013-10-03 08:33:00,
2013-10-03 04:48:00,56.2,55.0,29.90,NNE,24,0.0,-999.0,96,-99.99,,,0.00,weatherlink.com 1.10,2013-10-03 08:48:00,
2013-10-03 05:03:00,56.3,55.0,29.90,NNE,24,0.0,-999.0,96,-99.99,,,0.00,weatherlink.com 1.10,2013-10-03 09:03:00,
2013-10-03 05:18:00,56.6,56.0,29.90,NNE,24,0.0,-999.0,97,-99.99,,,0.00,weatherlink.com 1.10,2013-10-03 09:18:00,
2013-10-03 05:33:00,56.7,56.0,29.91,NNE,24,0.0,-999.0,96,-99.99,,,0.00,weatherlink.com 1.10,2013-10-03 09:33:00,
2013-10-03 05:48:00,56.9,56.0,29.91,NNE,24,0.0,-999.0,97,-99.99,,,0.00,weatherlink.com 1.10,2013-10-03 09:48:00,
2013-10-03 06:03:00,56.9,56.0,29.91,NNE,24,0.0,-999.0,97,-99.99,,,0.00,weatherlink.com 1.10,2013-10-03 10:03:00,
2013-10-03 06:18:00,56.8,56.0,29.93,NNE,24,0.0,-999.0,96,-99.99,,,0.00,weatherlink.com 1.10,2013-10-03 10:18:00,
2013-10-03 06:33:00,56.8,56.0,29.93,NNE,24,0.0,-999.0,96,-99.99,,,0.00,weatherlink.com 1.10,2013-10-03 10:33:00,
2013-10-03 06:48:00,56.6,56.0,29.93,NNE,24,0.0,-999.0,97,-99.99,,,0.00,weatherlink.com 1.10,2013-10-03 10:48:00,
2013-10-03 07:03:00,56.6,56.0,29.93,NNE,25,0.0,-999.0,97,-99.99,,,0.00,weatherlink.com 1.10,2013-10-03 11:03:00,
2013-10-03 07:18:00,56.3,55.0,29.94,NNE,24,0.0,-999.0,96,-99.99,,,0.00,weatherlink.com 1.10,2013-10-03 11:18:00,
2013-10-03 07:33:00,56.1,55.0,29.95,NNE,24,0.0,-999.0,97,-99.99,,,0.00,weatherlink.com 1.10,2013-10-03 11:33:00,
2013-10-03 07:48:00,56.7,56.0,29.94,NNE,22,0.0,-999.0,97,-99.99,,,0.00,weatherlink.com 1.10,2013-10-03 11:48:00,
2013-10-03 08:03:00,57.0,56.0,29.94,NNE,22,0.0,-999.0,97,-99.99,,,0.00,weatherlink.com 1.10,2013-10-03 12:03:00,
2013-10-03 08:18:00,57.7,57.0,29.95,NNE,22,0.0,-999.0,97,-99.99,,,0.00,weatherlink.com 1.10,2013-10-03 12:18:00,
2013-10-03 08:33:00,58.2,57.0,29.95,NNE,22,0.0,-999.0,96,-99.99,,,0.00,weatherlink.com 1.10,2013-10-03 12:33:00,
2013-10-03 08:48:00,58.8,58.0,29.96,NNE,22,0.0,-999.0,96,-99.99,,,0.00,weatherlink.com 1.10,2013-10-03 12:48:00,
2013-10-03 09:03:00,59.6,59.0,29.95,NNE,22,0.0,-999.0,97,-99.99,,,0.00,weatherlink.com 1.10,2013-10-03 13:03:00,
2013-10-03 09:18:00,60.8,60.0,29.96,NNE,26,0.0,-999.0,96,-99.99,,,0.00,weatherlink.com 1.10,2013-10-03 13:18:00,
2013-10-03 09:33:00,62.1,60.0,29.96,NNE,25,0.0,-999.0,94,-99.99,,,0.00,weatherlink.com 1.10,2013-10-03 13:33:00,
2013-10-03 09:48:00,63.4,61.0,29.95,NNE,28,0.0,-999.0,92,-99.99,,,0.00,weatherlink.com 1.10,2013-10-03 13:48:00,
2013-10-03 10:03:00,64.3,61.0,29.96,NNE,27,0.0,-999.0,90,-99.99,,,0.00,weatherlink.com 1.10,2013-10-03 14:03:00,
2013-10-03 10:18:00,65.3,62.0,29.96,NNE,28,0.0,-999.0,90,-99.99,,,0.00,weatherlink.com 1.10,2013-10-03 14:18:00,
2013-10-03 10:33:00,66.4,63.0,29.95,NNE,28,0.0,-999.0,89,-99.99,,,0.00,weatherlink.com 1.10,2013-10-03 14:33:00,
2013-10-03 10:48:00,67.3,60.0,29.95,NNW,342,0.0,-999.0,78,-99.99,,,0.00,weatherlink.com 1.10,2013-10-03 14:48:00,
2013-10-03 11:03:00,67.9,61.0,29.95,North,11,0.0,-999.0,78,-99.99,,,0.00,weatherlink.com 1.10,2013-10-03 15:03:00,
2013-10-03 11:19:00,68.4,59.0,29.95,NNW,329,4.0,-999.0,72,-99.99,,,0.00,weatherlink.com 1.10,2013-10-03 15:19:00,
2013-10-03 11:34:00,68.9,59.0,29.95,NNW,331,1.0,-999.0,70,-99.99,,,0.00,weatherlink.com 1.10,2013-10-03 15:34:00,
2013-10-03 11:49:00,68.8,60.0,29.95,NE,37,4.0,-999.0,74,-99.99,,,0.00,weatherlink.com 1.10,2013-10-03 15:49:00,
2013-10-03 12:04:00,69.1,60.0,29.94,NE,38,6.0,-999.0,73,-99.99,,,0.00,weatherlink.com 1.10,2013-10-03 16:04:00,
2013-10-03 12:19:00,69.3,62.0,29.94,NE,42,7.0,-999.0,77,-99.99,,,0.00,weatherlink.com 1.10,2013-10-03 16:19:00,
2013-10-03 12:49:00,69.2,62.0,29.94,NE,41,5.0,-999.0,77,-99.99,,,0.00,weatherlink.com 1.10,2013-10-03 16:49:00,
2013-10-03 13:04:00,68.6,62.0,29.94,NE,42,6.0,-999.0,80,-99.99,,,0.00,weatherlink.com 1.10,2013-10-03 17:04:00,
2013-10-03 13:19:00,68.3,63.0,29.94,NE,42,6.0,-999.0,82,-99.99,,,0.00,weatherlink.com 1.10,2013-10-03 17:19:00,
2013-10-03 13:34:00,68.4,62.0,29.93,NE,39,1.0,-999.0,80,-99.99,,,0.00,weatherlink.com 1.10,2013-10-03 17:34:00,
2013-10-03 13:49:00,69.2,62.0,29.93,SSE,163,3.0,-999.0,78,-99.99,,,0.00,weatherlink.com 1.10,2013-10-03 17:49:00,
2013-10-03 14:04:00,69.3,61.0,29.91,SSE,153,2.0,-999.0,76,-99.99,,,0.00,weatherlink.com 1.10,2013-10-03 18:04:00,
2013-10-03 14:19:00,69.2,61.0,29.92,SSE,159,1.0,-999.0,74,-99.99,,,0.00,weatherlink.com 1.10,2013-10-03 18:19:00,
2013-10-03 14:34:00,68.9,61.0,29.91,SSE,161,1.0,-999.0,77,-99.99,,,0.00,weatherlink.com 1.10,2013-10-03 18:34:00,
2013-10-03 14:49:00,68.9,62.0,29.91,SSE,150,5.0,-999.0,78,-99.99,,,0.00,weatherlink.com 1.10,2013-10-03 18:49:00,
2013-10-03 15:04:00,69.3,62.0,29.91,SE,133,7.0,-999.0,77,-99.99,,,0.00,weatherlink.com 1.10,2013-10-03 19:04:00,
2013-10-03 15:19:00,69.1,61.0,29.90,SSE,148,2.0,-999.0,76,-99.99,,,0.00,weatherlink.com 1.10,2013-10-03 19:19:00,
2013-10-03 15:34:00,69.0,61.0,29.90,SE,130,5.0,-999.0,75,-99.99,,,0.00,weatherlink.com 1.10,2013-10-03 19:34:00,
2013-10-03 15:49:00,68.9,61.0,29.89,SE,144,4.0,-999.0,76,-99.99,,,0.00,weatherlink.com 1.10,2013-10-03 19:49:00,
2013-10-03 16:04:00,68.8,61.0,29.89,SE,134,5.0,-999.0,77,-99.99,,,0.00,weatherlink.com 1.10,2013-10-03 20:04:00,
2013-10-03 16:19:00,68.6,60.0,29.90,East,92,5.0,-999.0,75,-99.99,,,0.00,weatherlink.com 1.10,2013-10-03 20:19:00,
2013-10-03 16:34:00,68.7,61.0,29.90,ESE,115,2.0,-999.0,76,-99.99,,,0.00,weatherlink.com 1.10,2013-10-03 20:34:00,
2013-10-03 16:49:00,68.8,60.0,29.90,ESE,118,3.0,-999.0,74,-99.99,,,0.00,weatherlink.com 1.10,2013-10-03 20:49:00,
2013-10-03 17:04:00,68.7,61.0,29.90,SE,124,4.0,-999.0,76,-99.99,,,0.00,weatherlink.com 1.10,2013-10-03 21:04:00,
2013-10-03 17:19:00,69.2,60.0,29.89,SE,132,3.0,-999.0,73,-99.99,,,0.00,weatherlink.com 1.10,2013-10-03 21:19:00,
2013-10-03 17:34:00,69.5,61.0,29.89,SE,131,0.0,-999.0,75,-99.99,,,0.00,weatherlink.com 1.10,2013-10-03 21:34:00,
2013-10-03 17:49:00,69.0,60.0,29.90,SSW,194,0.0,-999.0,74,-99.99,,,0.00,weatherlink.com 1.10,2013-10-03 21:49:00,
2013-10-03 18:04:00,68.4,63.0,29.89,ESE,113,0.0,-999.0,82,-99.99,,,0.00,weatherlink.com 1.10,2013-10-03 22:04:00,
2013-10-03 18:19:00,66.7,62.0,29.90,ESE,113,0.0,-999.0,84,-99.99,,,0.00,weatherlink.com 1.10,2013-10-03 22:19:00,
2013-10-03 18:34:00,65.8,63.0,29.91,ESE,113,0.0,-999.0,89,-99.99,,,0.00,weatherlink.com 1.10,2013-10-03 22:34:00,
2013-10-03 18:49:00,65.0,62.0,29.91,East,99,0.0,-999.0,90,-99.99,,,0.00,weatherlink.com 1.10,2013-10-03 22:49:00,
2013-10-03 19:04:00,64.5,62.0,29.91,East,99,0.0,-999.0,91,-99.99,,,0.00,weatherlink.com 1.10,2013-10-03 23:04:00,
2013-10-03 19:19:00,63.8,62.0,29.93,East,99,0.0,-999.0,92,-99.99,,,0.00,weatherlink.com 1.10,2013-10-03 23:19:00,
2013-10-03 19:34:00,63.4,61.0,29.92,East,99,0.0,-999.0,92,-99.99,,,0.00,weatherlink.com 1.10,2013-10-03 23:34:00,
2013-10-03 19:49:00,63.1,61.0,29.93,East,99,0.0,-999.0,94,-99.99,,,0.00,weatherlink.com 1.10,2013-10-03 23:49:00,
2013-10-03 20:04:00,62.5,61.0,29.92,SSE,157,0.0,-999.0,94,-99.99,,,0.00,weatherlink.com 1.10,2013-10-04 00:04:00,
2013-10-03 20:19:00,61.8,60.0,29.92,SSE,159,0.0,-999.0,94,-99.99,,,0.00,weatherlink.com 1.10,2013-10-04 00:19:00,
2013-10-03 20:34:00,61.4,60.0,29.93,SSE,163,0.0,-999.0,95,-99.99,,,0.00,weatherlink.com 1.10,2013-10-04 00:34:00,
2013-10-03 20:49:00,61.1,60.0,29.93,SW,223,0.0,-999.0,95,-99.99,,,0.00,weatherlink.com 1.10,2013-10-04 00:49:00,
2013-10-03 21:04:00,61.0,60.0,29.94,WNW,299,0.0,-999.0,95,-99.99,,,0.00,weatherlink.com 1.10,2013-10-04 01:04:00,
2013-10-03 21:19:00,60.7,59.0,29.93,WSW,255,0.0,-999.0,95,-99.99,,,0.00,weatherlink.com 1.10,2013-10-04 01:19:00,
2013-10-03 21:34:00,60.6,60.0,29.93,WSW,254,0.0,-999.0,96,-99.99,,,0.00,weatherlink.com 1.10,2013-10-04 01:34:00,
2013-10-03 21:49:00,60.2,59.0,29.94,NW,304,0.0,-999.0,96,-99.99,,,0.00,weatherlink.com 1.10,2013-10-04 01:49:00,
2013-10-03 22:04:00,59.9,59.0,29.94,SW,226,0.0,-999.0,97,-99.99,,,0.00,weatherlink.com 1.10,2013-10-04 02:04:00,
2013-10-03 22:19:00,59.6,59.0,29.93,West,264,0.0,-999.0,96,-99.99,,,0.00,weatherlink.com 1.10,2013-10-04 02:19:00,
2013-10-03 22:34:00,59.3,58.0,29.93,West,270,0.0,-999.0,96,-99.99,,,0.00,weatherlink.com 1.10,2013-10-04 02:34:00,
2013-10-03 22:49:00,59.0,58.0,29.93,West,278,0.0,-999.0,97,-99.99,,,0.00,weatherlink.com 1.10,2013-10-04 02:49:00,
2013-10-03 23:04:00,58.8,58.0,29.94,West,277,0.0,-999.0,97,-99.99,,,0.00,weatherlink.com 1.10,2013-10-04 03:04:00,
2013-10-03 23:19:00,58.6,58.0,29.93,West,278,0.0,-999.0,96,-99.99,,,0.00,weatherlink.com 1.10,2013-10-04 03:19:00,
2013-10-03 23:34:00,58.1,57.0,29.94,West,278,0.0,-999.0,96,-99.99,,,0.00,weatherlink.com 1.10,2013-10-04 03:34:00,
2013-10-03 23:49:00,57.6,57.0,29.94,NW,309,0.0,-999.0,96,-99.99,,,0.00,weatherlink.com 1.10,2013-10-04 03:49:00,